Change the Weather History Date:

Monday, May 12, 2014

  Actual Average Record
Temperature  
Mean Temperature 60 °F -  
Max Temperature 77 °F 61 °F 82 °F (1997)
Min Temperature 44 °F 42 °F 35 °F (2006)
Degree Days  
Heating Degree Days 5    
Growing Degree Days 10 (Base 50)    
Moisture  
Dew Point 41 °F    
Average Humidity 57    
Maximum Humidity 99    
Minimum Humidity 22    
Precipitation  
Precipitation 0.00 in - - ()
Sea Level Pressure  
Sea Level Pressure 30.33 in    
Wind  
Wind Speed 3 mph (NNW)    
Max Wind Speed 13 mph    
Max Gust Speed -    
Visibility 10 miles    
Events      
Averages and records for this station are not official NWS values.
T = Trace of Precipitation, MM = Missing Value Source: NWS Daily Summary

Daily Weather History Graph

Daily Weather History Graph

Search for Another Location

Airport or City:

Trip Planner

Search our weather history database for the weather conditions in past years. The results will help you decide how hot, cold, wet, or windy it might be!

Date:

Astronomy

May. 12, 2014 Rise Set
Actual Time 5:38 AM PDT 8:35 PM PDT
Civil Twilight 5:02 AM PDT 9:11 PM PDT
Nautical Twilight 4:17 AM PDT 9:57 PM PDT
Astronomical Twilight 3:22 AM PDT 10:53 PM PDT
Moon 6:31 PM PDT (5/12) 4:30 AM PDT (5/12)
Length of Visible Light 16h 08m
Length of Day
14h 57m
Waxing Gibbous, 95% of the Moon is Illuminated
May 12
Waxing Gibbous
May 14
Full
May 21
Last Quarter
May 28
New
Jun 5
First Quarter

Hourly Weather History & Observations

Time (PDT) Temp. Dew Point Humidity Pressure Visibility Wind Dir Wind Speed Gust Speed Precip Events Conditions
12:58 AM 47.3 °F 45.0 °F 92% 30.36 in 10.0 mi ESE 3.5 mph - N/A   Clear
1:58 AM 45.7 °F 43.7 °F 93% 30.36 in 10.0 mi SE 2.3 mph - N/A   Clear
2:58 AM 47.7 °F 45.1 °F 91% 30.35 in 10.0 mi Calm Calm - N/A   Clear
3:58 AM 46.9 °F 44.8 °F 92% 30.34 in 10.0 mi Calm Calm - N/A   Clear
4:58 AM 46.0 °F 44.8 °F 95% 30.34 in 10.0 mi Calm Calm - N/A   Clear
5:58 AM 45.3 °F 44.2 °F 96% 30.35 in 10.0 mi Calm Calm - N/A   Clear
6:58 AM 44.2 °F 44.1 °F 99% 30.37 in 10.0 mi Calm Calm - N/A   Mostly Cloudy
7:58 AM 50.7 °F 47.8 °F 90% 30.37 in 10.0 mi East 2.3 mph - N/A   Partly Cloudy
8:58 AM 56.7 °F 47.5 °F 71% 30.36 in 10.0 mi Variable 1.2 mph - N/A   Clear
9:58 AM 61.0 °F 47.1 °F 60% 30.36 in 10.0 mi NW 4.6 mph - N/A   Clear
10:58 AM 65.3 °F 49.3 °F 56% 30.36 in 10.0 mi Variable 4.6 mph - N/A   Clear
11:58 AM 68.0 °F 46.2 °F 46% 30.35 in 10.0 mi Variable 5.8 mph - N/A   Clear
12:58 PM 71.4 °F 40.5 °F 33% 30.34 in 10.0 mi NNW 8.1 mph - N/A   Clear
1:58 PM 73.4 °F 37.6 °F 27% 30.33 in 10.0 mi WNW 12.7 mph - N/A   Clear
2:58 PM 75.2 °F 35.2 °F 23% 30.32 in 10.0 mi NNW 10.4 mph - N/A   Clear
3:58 PM 75.6 °F 34.5 °F 22% 30.30 in 10.0 mi WNW 2.3 mph - N/A   Clear
4:58 PM 76.3 °F 34.3 °F 22% 30.29 in 10.0 mi NNW 8.1 mph - N/A   Partly Cloudy
5:58 PM 75.0 °F 35.2 °F 24% 30.27 in 10.0 mi NW 10.4 mph - N/A   Clear
6:58 PM 75.2 °F 34.2 °F 22% 30.26 in 10.0 mi WNW 10.4 mph - N/A   Clear
7:58 PM 73.6 °F 32.0 °F 22% 30.26 in 10.0 mi North 5.8 mph - N/A   Clear
8:58 PM 67.1 °F 38.5 °F 35% 30.27 in 10.0 mi Variable 1.2 mph - N/A   Clear
9:58 PM 60.1 °F 42.3 °F 52% 30.29 in 10.0 mi SE 3.5 mph - N/A   Clear
10:58 PM 55.6 °F 40.5 °F 57% 30.30 in 10.0 mi SE 2.3 mph - N/A   Clear
11:58 PM 54.5 °F 40.8 °F 60% 30.31 in 10.0 mi SE 1.2 mph - N/A   Clear